SWA3625 KOKC-KPHX

Flight info

Callsign SWA3625
Flight time 2h 3m
Altitude 36000
Route STPHN3 ZEEWE KA36Y GUP EAGUL6
Aircraft B38M/M-SADE2E3GHIJ4J7P2RWZ/LB1D1

Departure

Time 2026-04-22 15:47
Airport OKC Will Rogers World Airport (KOKC)

Arrival

Time 2026-04-22 17:50
Airport Phoenix Sky Harbor International Airport (KPHX)
Time Latitude Longitude Altitude Speed Heading
2026-04-22 14:40 35.39451 -97.59658 1300 ft 0 kts 15°
2026-04-22 15:34 35.39447 -97.59660 1299 ft 3 kts 15°
2026-04-22 15:35 35.39421 -97.59669 1300 ft 4 kts 15°
2026-04-22 15:35 35.39395 -97.59678 1300 ft 4 kts 15°
2026-04-22 15:35 35.39382 -97.59682 1300 ft 0 kts 15°
2026-04-22 15:39 35.39383 -97.59683 1300 ft 0 kts 360°
2026-04-22 15:40 35.39388 -97.59691 1300 ft 3 kts 308°
2026-04-22 15:40 35.39405 -97.59747 1299 ft 10 kts 277°
2026-04-22 15:40 35.39388 -97.59813 1299 ft 6 kts 224°
2026-04-22 15:40 35.39360 -97.59852 1297 ft 7 kts 259°
2026-04-22 15:41 35.39374 -97.59917 1297 ft 8 kts 297°
2026-04-22 15:41 35.39403 -97.59958 1298 ft 5 kts 314°
2026-04-22 15:41 35.39429 -97.59997 1298 ft 9 kts 291°
2026-04-22 15:41 35.39429 -97.60100 1295 ft 14 kts 298°
2026-04-22 15:42 35.39496 -97.60188 1293 ft 13 kts 315°
2026-04-22 15:42 35.39555 -97.60256 1293 ft 10 kts 317°
2026-04-22 15:42 35.39603 -97.60312 1292 ft 10 kts 316°
2026-04-22 15:42 35.39677 -97.60386 1290 ft 18 kts 335°
2026-04-22 15:43 35.39807 -97.60403 1291 ft 18 kts
2026-04-22 15:43 35.39921 -97.60401 1293 ft 14 kts
2026-04-22 15:43 35.40005 -97.60401 1294 ft 10 kts 359°
2026-04-22 15:43 35.40077 -97.60402 1296 ft 12 kts 359°
2026-04-22 15:44 35.40181 -97.60403 1297 ft 17 kts
2026-04-22 15:44 35.40293 -97.60402 1299 ft 14 kts 360°
2026-04-22 15:44 35.40385 -97.60402 1300 ft 13 kts
2026-04-22 15:44 35.40478 -97.60402 1299 ft 12 kts 358°
2026-04-22 15:45 35.40554 -97.60416 1299 ft 9 kts 328°
2026-04-22 15:45 35.40572 -97.60441 1299 ft 0 kts 296°
2026-04-22 15:45 35.40572 -97.60442 1299 ft 0 kts 295°
2026-04-22 15:46 35.40578 -97.60478 1300 ft 9 kts 277°
2026-04-22 15:46 35.40536 -97.60582 1299 ft 21 kts 199°
2026-04-22 15:46 35.40241 -97.60569 1299 ft 75 kts 180°
2026-04-22 15:46 35.39490 -97.60570 1292 ft 138 kts 179°
2026-04-22 15:47 35.38444 -97.60562 1668 ft 155 kts 178°
2026-04-22 15:47 35.37340 -97.60551 2290 ft 160 kts 179°
2026-04-22 15:47 35.36194 -97.60880 2846 ft 181 kts 199°
2026-04-22 15:47 35.34969 -97.61530 3347 ft 204 kts 201°
2026-04-22 15:48 35.33589 -97.62286 3841 ft 231 kts 202°
2026-04-22 15:48 35.32088 -97.63112 4546 ft 244 kts 204°
2026-04-22 15:48 35.30495 -97.63989 5338 ft 253 kts 204°
2026-04-22 15:48 35.28914 -97.64860 6466 ft 250 kts 204°
2026-04-22 15:49 35.27284 -97.65830 7148 ft 265 kts 215°
2026-04-22 15:49 35.26130 -97.67527 8272 ft 264 kts 244°
2026-04-22 15:49 35.25675 -97.69753 9065 ft 278 kts 264°
2026-04-22 15:49 35.25922 -97.72118 9962 ft 288 kts 286°
2026-04-22 15:50 35.26921 -97.74310 10639 ft 304 kts 302°
2026-04-22 15:50 35.28117 -97.76553 11061 ft 323 kts 301°
2026-04-22 15:50 35.29343 -97.78920 11678 ft 335 kts 301°
2026-04-22 15:50 35.30603 -97.81356 12390 ft 341 kts 301°
2026-04-22 15:51 35.31889 -97.83825 13225 ft 345 kts 302°
2026-04-22 15:51 35.33187 -97.86313 14004 ft 349 kts 302°
2026-04-22 15:51 35.34496 -97.88822 14816 ft 352 kts 302°
2026-04-22 15:51 35.35825 -97.91369 15547 ft 356 kts 302°
2026-04-22 15:52 35.37164 -97.93936 16310 ft 359 kts 302°
2026-04-22 15:52 35.38517 -97.96529 17034 ft 363 kts 302°
2026-04-22 15:52 35.39883 -97.99153 17685 ft 367 kts 303°
2026-04-22 15:52 35.41263 -98.01803 18331 ft 371 kts 303°
2026-04-22 15:53 35.42657 -98.04480 19010 ft 374 kts 302°
2026-04-22 15:53 35.44074 -98.07204 19621 ft 378 kts 302°
2026-04-22 15:53 35.45504 -98.09951 20180 ft 382 kts 302°
2026-04-22 15:53 35.46845 -98.12761 20807 ft 385 kts 293°
2026-04-22 15:54 35.47501 -98.15938 21424 ft 385 kts 277°
2026-04-22 15:54 35.47835 -98.19206 21944 ft 389 kts 277°
2026-04-22 15:54 35.48164 -98.22522 22445 ft 393 kts 277°
2026-04-22 15:54 35.48479 -98.25867 22996 ft 395 kts 276°
2026-04-22 15:55 35.48787 -98.29228 23503 ft 399 kts 276°
2026-04-22 15:55 35.49091 -98.32613 24052 ft 400 kts 276°
2026-04-22 15:55 35.49396 -98.36025 24515 ft 404 kts 276°
2026-04-22 15:55 35.49703 -98.39473 24961 ft 408 kts 276°
2026-04-22 15:56 35.50010 -98.42946 25389 ft 411 kts 276°
2026-04-22 15:56 35.50320 -98.46450 25818 ft 415 kts 276°
2026-04-22 15:56 35.50631 -98.49988 26216 ft 419 kts 276°
2026-04-22 15:56 35.50944 -98.53554 26637 ft 421 kts 276°
2026-04-22 15:57 35.51256 -98.57135 27044 ft 424 kts 276°
2026-04-22 15:57 35.51571 -98.60750 27384 ft 428 kts 276°
2026-04-22 15:57 35.51887 -98.64394 27795 ft 430 kts 276°
2026-04-22 15:57 35.52204 -98.68053 28113 ft 434 kts 276°
2026-04-22 15:58 35.52523 -98.71760 28449 ft 437 kts 276°
2026-04-22 15:58 35.52736 -98.74222 28757 ft 438 kts 276°
2026-04-22 15:58 35.53056 -98.77962 29013 ft 443 kts 275°
2026-04-22 15:58 35.53383 -98.81775 29393 ft 444 kts 275°
2026-04-22 15:59 35.53706 -98.85556 29733 ft 447 kts 275°
2026-04-22 15:59 35.54030 -98.89367 30039 ft 450 kts 275°
2026-04-22 15:59 35.54355 -98.93201 30361 ft 453 kts 275°
2026-04-22 15:59 35.54680 -98.97048 30679 ft 455 kts 275°
2026-04-22 16:00 35.55005 -99.00914 31000 ft 457 kts 275°
2026-04-22 16:00 35.55331 -99.04809 31304 ft 459 kts 275°
2026-04-22 16:00 35.55658 -99.08719 31618 ft 461 kts 275°
2026-04-22 16:00 35.55984 -99.12644 31907 ft 463 kts 275°
2026-04-22 16:01 35.56439 -99.16563 32192 ft 466 kts 283°
2026-04-22 16:01 35.57171 -99.20456 32492 ft 468 kts 282°
2026-04-22 16:01 35.57847 -99.24369 32742 ft 470 kts 281°
2026-04-22 16:01 35.58507 -99.28309 33064 ft 471 kts 281°
2026-04-22 16:02 35.59158 -99.32244 33474 ft 469 kts 281°
2026-04-22 16:02 35.59803 -99.36168 33873 ft 468 kts 281°
2026-04-22 16:02 35.60444 -99.40080 34242 ft 467 kts 281°
2026-04-22 16:02 35.61084 -99.43989 34610 ft 466 kts 281°
2026-04-22 16:03 35.61720 -99.47889 34977 ft 465 kts 281°
2026-04-22 16:03 35.62354 -99.51780 35350 ft 463 kts 281°
2026-04-22 16:03 35.62983 -99.55652 35689 ft 462 kts 281°
2026-04-22 16:03 35.63611 -99.59524 35999 ft 462 kts 281°
2026-04-22 16:04 35.64862 -99.67261 36052 ft 459 kts 281°
2026-04-22 16:04 35.66106 -99.74994 36036 ft 458 kts 281°
2026-04-22 16:05 35.67330 -99.82631 36029 ft 458 kts 281°
2026-04-22 16:05 35.68566 -99.90374 36027 ft 458 kts 280°
2026-04-22 16:06 35.69789 -99.98073 36026 ft 458 kts 280°
2026-04-22 16:06 35.71007 -100.05767 36019 ft 458 kts 280°
2026-04-22 16:07 35.72216 -100.13443 36018 ft 457 kts 280°
2026-04-22 16:07 35.73422 -100.21132 36018 ft 457 kts 280°
2026-04-22 16:08 35.74622 -100.28816 36013 ft 457 kts 280°
2026-04-22 16:08 35.75815 -100.36492 36009 ft 457 kts 280°
2026-04-22 16:09 35.77006 -100.44180 36011 ft 457 kts 280°
2026-04-22 16:09 35.78189 -100.51858 36007 ft 456 kts 280°
2026-04-22 16:10 35.79366 -100.59533 36011 ft 456 kts 280°
2026-04-22 16:10 35.80538 -100.67203 36017 ft 455 kts 280°
2026-04-22 16:11 35.81702 -100.74861 36018 ft 455 kts 280°
2026-04-22 16:11 35.82860 -100.82510 36017 ft 454 kts 279°
2026-04-22 16:12 35.84012 -100.90151 36018 ft 453 kts 279°
2026-04-22 16:12 35.85158 -100.97785 36018 ft 453 kts 279°
2026-04-22 16:13 35.86296 -101.05407 36017 ft 452 kts 279°
2026-04-22 16:13 35.87436 -101.13075 36017 ft 451 kts 279°
2026-04-22 16:14 35.88562 -101.20682 36018 ft 451 kts 279°
2026-04-22 16:14 35.89682 -101.28283 36013 ft 450 kts 279°
2026-04-22 16:15 35.90796 -101.35880 36012 ft 450 kts 279°
2026-04-22 16:15 35.91905 -101.43471 36007 ft 450 kts 279°
2026-04-22 16:16 35.93007 -101.51060 36008 ft 449 kts 278°
2026-04-22 16:16 35.94106 -101.58650 36007 ft 449 kts 278°
2026-04-22 16:17 35.95199 -101.66243 36008 ft 449 kts 278°
2026-04-22 16:17 35.96286 -101.73822 36009 ft 449 kts 278°
2026-04-22 16:18 35.97372 -101.81424 36007 ft 449 kts 278°
2026-04-22 16:18 35.98450 -101.89000 36007 ft 449 kts 278°
2026-04-22 16:19 35.99526 -101.96595 36007 ft 449 kts 278°
2026-04-22 16:19 36.00337 -102.04215 36012 ft 447 kts 272°
2026-04-22 16:20 36.00180 -102.08032 35992 ft 443 kts 257°
2026-04-22 16:20 35.99506 -102.11732 36009 ft 444 kts 258°
2026-04-22 16:20 35.99065 -102.19399 36001 ft 446 kts 265°
2026-04-22 16:21 35.98693 -102.26989 36008 ft 445 kts 265°
2026-04-22 16:21 35.98309 -102.34665 36002 ft 445 kts 265°
2026-04-22 16:22 35.97731 -102.46077 36001 ft 443 kts 265°
2026-04-22 16:23 35.97142 -102.57467 35997 ft 443 kts 265°
2026-04-22 16:23 35.96743 -102.65055 36001 ft 442 kts 265°
2026-04-22 16:24 35.96139 -102.76393 35999 ft 441 kts 265°
2026-04-22 16:25 35.95732 -102.83928 35995 ft 439 kts 265°
2026-04-22 16:25 35.95114 -102.95179 36004 ft 438 kts 265°
2026-04-22 16:26 35.94697 -103.02676 36006 ft 437 kts 265°
2026-04-22 16:26 35.94277 -103.10136 36009 ft 435 kts 265°
2026-04-22 16:27 35.93854 -103.17577 36008 ft 434 kts 265°
2026-04-22 16:27 35.93427 -103.25003 36015 ft 433 kts 265°
2026-04-22 16:28 35.92995 -103.32424 36019 ft 433 kts 265°
2026-04-22 16:28 35.92561 -103.39820 36018 ft 432 kts 265°
2026-04-22 16:29 35.92118 -103.47267 36018 ft 432 kts 264°
2026-04-22 16:29 35.91676 -103.54646 36008 ft 431 kts 264°
2026-04-22 16:30 35.91304 -103.60776 36029 ft 430 kts 264°
2026-04-22 16:30 35.90855 -103.68128 36026 ft 430 kts 264°
2026-04-22 16:31 35.90401 -103.75478 36025 ft 430 kts 264°
2026-04-22 16:31 35.89942 -103.82832 36033 ft 429 kts 264°
2026-04-22 16:32 35.89480 -103.90173 36037 ft 429 kts 264°
2026-04-22 16:32 35.89013 -103.97516 36033 ft 430 kts 264°
2026-04-22 16:33 35.88542 -104.04844 36035 ft 429 kts 264°
2026-04-22 16:33 35.88066 -104.12187 36057 ft 429 kts 264°
2026-04-22 16:34 35.87583 -104.19568 36061 ft 429 kts 264°
2026-04-22 16:34 35.87098 -104.26902 36072 ft 429 kts 264°
2026-04-22 16:35 35.86610 -104.34224 36080 ft 429 kts 264°
2026-04-22 16:35 35.86117 -104.41548 36078 ft 428 kts 264°
2026-04-22 16:36 35.85621 -104.48855 36091 ft 428 kts 264°
2026-04-22 16:36 35.85120 -104.56163 36112 ft 428 kts 264°
2026-04-22 16:37 35.84615 -104.63460 36132 ft 427 kts 264°
2026-04-22 16:37 35.84107 -104.70754 36140 ft 426 kts 264°
2026-04-22 16:38 35.83595 -104.78028 36147 ft 426 kts 263°
2026-04-22 16:38 35.83079 -104.85297 36149 ft 425 kts 263°
2026-04-22 16:39 35.82558 -104.92563 36149 ft 426 kts 263°
2026-04-22 16:39 35.82035 -104.99817 36146 ft 425 kts 263°
2026-04-22 16:40 35.81507 -105.07065 36148 ft 425 kts 263°
2026-04-22 16:41 35.80707 -105.17938 36146 ft 424 kts 263°
2026-04-22 16:41 35.80169 -105.25172 36149 ft 424 kts 263°
2026-04-22 16:42 35.79624 -105.32448 36154 ft 424 kts 263°
2026-04-22 16:42 35.79077 -105.39675 36158 ft 424 kts 262°
2026-04-22 16:43 35.78527 -105.46900 36162 ft 424 kts 262°
2026-04-22 16:43 35.77972 -105.54132 36169 ft 423 kts 262°
2026-04-22 16:44 35.77414 -105.61339 36155 ft 423 kts 262°
2026-04-22 16:44 35.76852 -105.68551 36160 ft 423 kts 262°
2026-04-22 16:45 35.76285 -105.75754 36166 ft 423 kts 262°
2026-04-22 16:45 35.75715 -105.82961 36166 ft 423 kts 262°
2026-04-22 16:46 35.75140 -105.90167 36165 ft 423 kts 262°
2026-04-22 16:46 35.74560 -105.97377 36167 ft 423 kts 262°
2026-04-22 16:47 35.73976 -106.04585 36169 ft 423 kts 262°
2026-04-22 16:47 35.73389 -106.11777 36163 ft 423 kts 262°
2026-04-22 16:48 35.72797 -106.18972 36168 ft 422 kts 262°
2026-04-22 16:48 35.72201 -106.26166 36173 ft 423 kts 262°
2026-04-22 16:49 35.71600 -106.33366 36175 ft 422 kts 262°
2026-04-22 16:49 35.70996 -106.40546 36179 ft 422 kts 262°
2026-04-22 16:50 35.70384 -106.47777 36174 ft 421 kts 262°
2026-04-22 16:50 35.69774 -106.54926 36169 ft 420 kts 262°
2026-04-22 16:51 35.69160 -106.62076 36174 ft 420 kts 262°
2026-04-22 16:51 35.68542 -106.69219 36174 ft 420 kts 262°
2026-04-22 16:52 35.67921 -106.76348 36171 ft 418 kts 262°
2026-04-22 16:52 35.67297 -106.83460 36171 ft 418 kts 262°
2026-04-22 16:53 35.66670 -106.90564 36179 ft 418 kts 262°
2026-04-22 16:53 35.66039 -106.97657 36182 ft 417 kts 262°
2026-04-22 16:54 35.65405 -107.04743 36187 ft 416 kts 262°
2026-04-22 16:54 35.64768 -107.11811 36179 ft 415 kts 262°
2026-04-22 16:55 35.64128 -107.18872 36187 ft 416 kts 262°
2026-04-22 16:55 35.63484 -107.25920 36179 ft 414 kts 262°
2026-04-22 16:56 35.62838 -107.32957 36184 ft 414 kts 262°
2026-04-22 16:56 35.62187 -107.39990 36180 ft 414 kts 262°
2026-04-22 16:57 35.61534 -107.47009 36189 ft 414 kts 262°
2026-04-22 16:57 35.60871 -107.54078 36194 ft 414 kts 262°
2026-04-22 16:58 35.60321 -107.59917 36196 ft 414 kts 262°
2026-04-22 16:58 35.59543 -107.68118 36194 ft 414 kts 262°
2026-04-22 16:59 35.58873 -107.75140 36201 ft 414 kts 262°
2026-04-22 16:59 35.58199 -107.82158 36203 ft 414 kts 262°
2026-04-22 17:00 35.57520 -107.89174 36205 ft 414 kts 262°
2026-04-22 17:00 35.56495 -107.99696 36211 ft 414 kts 262°
2026-04-22 17:01 35.55807 -108.06703 36211 ft 412 kts 262°
2026-04-22 17:01 35.55120 -108.13672 36210 ft 410 kts 262°
2026-04-22 17:02 35.54430 -108.20619 36214 ft 410 kts 262°
2026-04-22 17:02 35.53738 -108.27559 36206 ft 409 kts 262°
2026-04-22 17:03 35.53044 -108.34488 36201 ft 409 kts 262°
2026-04-22 17:03 35.52345 -108.41417 36195 ft 408 kts 263°
2026-04-22 17:04 35.51759 -108.47202 36187 ft 407 kts 263°
2026-04-22 17:04 35.51057 -108.54091 36184 ft 407 kts 263°
2026-04-22 17:05 35.50353 -108.60959 36184 ft 405 kts 263°
2026-04-22 17:05 35.49647 -108.67809 36185 ft 404 kts 263°
2026-04-22 17:06 35.48941 -108.74630 36180 ft 403 kts 263°
2026-04-22 17:06 35.48231 -108.81445 36184 ft 401 kts 263°
2026-04-22 17:07 35.46498 -108.87861 36190 ft 404 kts 239°
2026-04-22 17:07 35.43221 -108.93518 36179 ft 409 kts 235°
2026-04-22 17:08 35.39221 -108.98521 36177 ft 417 kts 221°
2026-04-22 17:08 35.36964 -109.00723 36172 ft 411 kts 232°
2026-04-22 17:08 35.35123 -109.03362 36187 ft 409 kts 232°
2026-04-22 17:09 35.31226 -109.08464 36185 ft 410 kts 232°
2026-04-22 17:09 35.27305 -109.13529 36194 ft 410 kts 232°
2026-04-22 17:10 35.23376 -109.18591 36196 ft 410 kts 232°
2026-04-22 17:10 35.19452 -109.23637 36195 ft 409 kts 232°
2026-04-22 17:11 35.15502 -109.28709 36195 ft 409 kts 232°
2026-04-22 17:11 35.11574 -109.33747 36187 ft 409 kts 232°
2026-04-22 17:12 35.07648 -109.38773 36189 ft 409 kts 232°
2026-04-22 17:12 35.03719 -109.43794 36196 ft 409 kts 232°
2026-04-22 17:13 34.99791 -109.48809 36183 ft 408 kts 232°
2026-04-22 17:13 34.95862 -109.53816 36180 ft 409 kts 232°
2026-04-22 17:14 34.91939 -109.58809 36186 ft 408 kts 232°
2026-04-22 17:14 34.88006 -109.63807 36176 ft 408 kts 232°
2026-04-22 17:15 34.84078 -109.68797 36177 ft 408 kts 233°
2026-04-22 17:15 34.80155 -109.73794 36172 ft 408 kts 232°
2026-04-22 17:16 34.76234 -109.78783 36180 ft 408 kts 233°
2026-04-22 17:16 34.72311 -109.83768 36182 ft 407 kts 233°
2026-04-22 17:17 34.70660 -109.86482 36175 ft 394 kts 248°
2026-04-22 17:17 34.69485 -109.89487 36184 ft 394 kts 249°
2026-04-22 17:17 34.67157 -109.95499 36185 ft 393 kts 250°
2026-04-22 17:18 34.64882 -110.01545 36196 ft 393 kts 250°
2026-04-22 17:18 34.62618 -110.07602 36199 ft 390 kts 250°
2026-04-22 17:19 34.58124 -110.19604 36204 ft 390 kts 250°
2026-04-22 17:20 34.53617 -110.31600 35847 ft 389 kts 250°
2026-04-22 17:21 34.52486 -110.34604 34780 ft 397 kts 250°
2026-04-22 17:21 34.50153 -110.40788 33265 ft 398 kts 250°
2026-04-22 17:22 34.47894 -110.46763 32511 ft 383 kts 250°
2026-04-22 17:22 34.46793 -110.49673 32173 ft 381 kts 250°
2026-04-22 17:22 34.44589 -110.55489 31367 ft 378 kts 249°
2026-04-22 17:23 34.43492 -110.58377 30929 ft 377 kts 249°
2026-04-22 17:23 34.41311 -110.64119 30136 ft 374 kts 249°
2026-04-22 17:23 34.40225 -110.66970 29745 ft 372 kts 249°
2026-04-22 17:24 34.39144 -110.69809 29355 ft 371 kts 249°
2026-04-22 17:24 34.38065 -110.72641 28973 ft 370 kts 249°
2026-04-22 17:24 34.36989 -110.75460 28565 ft 368 kts 249°
2026-04-22 17:24 34.35910 -110.78253 28154 ft 367 kts 245°
2026-04-22 17:25 34.34402 -110.80757 27685 ft 371 kts 231°
2026-04-22 17:25 34.32653 -110.83028 27311 ft 369 kts 232°
2026-04-22 17:25 34.30925 -110.85319 26915 ft 368 kts 232°
2026-04-22 17:25 34.29188 -110.87592 26517 ft 367 kts 231°
2026-04-22 17:26 34.27431 -110.89876 26121 ft 365 kts 231°
2026-04-22 17:26 34.25703 -110.92113 25729 ft 364 kts 231°
2026-04-22 17:26 34.23977 -110.94345 25325 ft 362 kts 231°
2026-04-22 17:26 34.22264 -110.96557 24936 ft 360 kts 230°
2026-04-22 17:27 34.20551 -110.98768 24547 ft 359 kts 230°
2026-04-22 17:27 34.18851 -111.00958 24163 ft 357 kts 230°
2026-04-22 17:27 34.17161 -111.03138 23783 ft 355 kts 230°
2026-04-22 17:27 34.15474 -111.05310 23398 ft 352 kts 230°
2026-04-22 17:28 34.13809 -111.07453 23023 ft 348 kts 230°
2026-04-22 17:28 34.12153 -111.09583 22589 ft 347 kts 230°
2026-04-22 17:28 34.10509 -111.11697 22221 ft 343 kts 230°
2026-04-22 17:28 34.08884 -111.13784 21888 ft 339 kts 230°
2026-04-22 17:29 34.07275 -111.15851 21529 ft 336 kts 230°
2026-04-22 17:29 34.05680 -111.17897 21148 ft 334 kts 230°
2026-04-22 17:29 34.04096 -111.19928 20799 ft 330 kts 230°
2026-04-22 17:29 34.02532 -111.21934 20453 ft 328 kts 230°
2026-04-22 17:30 34.00976 -111.23928 20095 ft 326 kts 230°
2026-04-22 17:30 33.99428 -111.25907 19744 ft 322 kts 230°
2026-04-22 17:30 33.97898 -111.27867 19400 ft 320 kts 230°
2026-04-22 17:30 33.96383 -111.29805 19054 ft 317 kts 230°
2026-04-22 17:31 33.94876 -111.31730 18707 ft 314 kts 230°
2026-04-22 17:31 33.93386 -111.33633 18365 ft 312 kts 230°
2026-04-22 17:31 33.91903 -111.35527 17988 ft 309 kts 230°
2026-04-22 17:31 33.90437 -111.37397 17633 ft 306 kts 230°
2026-04-22 17:32 33.88986 -111.39249 17308 ft 303 kts 230°
2026-04-22 17:32 33.87641 -111.41187 16868 ft 301 kts 239°
2026-04-22 17:32 33.86537 -111.43321 16474 ft 301 kts 239°
2026-04-22 17:32 33.85426 -111.45445 16086 ft 300 kts 239°
2026-04-22 17:33 33.84676 -111.46876 15830 ft 299 kts 239°
2026-04-22 17:33 33.83209 -111.49673 15324 ft 297 kts 239°
2026-04-22 17:33 33.82109 -111.51767 14930 ft 297 kts 238°
2026-04-22 17:33 33.81007 -111.53864 14539 ft 296 kts 239°
2026-04-22 17:34 33.79904 -111.55963 14138 ft 288 kts 238°
2026-04-22 17:34 33.78851 -111.57945 13874 ft 277 kts 238°
2026-04-22 17:34 33.77810 -111.59899 13625 ft 278 kts 238°
2026-04-22 17:34 33.76800 -111.61798 13390 ft 276 kts 238°
2026-04-22 17:35 33.75768 -111.63736 13153 ft 275 kts 238°
2026-04-22 17:35 33.74741 -111.65664 12908 ft 272 kts 238°
2026-04-22 17:35 33.73730 -111.67561 12675 ft 267 kts 238°
2026-04-22 17:35 33.72737 -111.69421 12443 ft 261 kts 238°
2026-04-22 17:36 33.72091 -111.70632 12283 ft 258 kts 238°
2026-04-22 17:36 33.71133 -111.72427 12057 ft 253 kts 238°
2026-04-22 17:36 33.70199 -111.74184 11854 ft 247 kts 238°
2026-04-22 17:36 33.69286 -111.75906 11607 ft 244 kts 238°
2026-04-22 17:37 33.68368 -111.77637 11429 ft 247 kts 238°
2026-04-22 17:37 33.67489 -111.79413 11176 ft 249 kts 247°
2026-04-22 17:37 33.67350 -111.81476 10822 ft 255 kts 282°
2026-04-22 17:37 33.68295 -111.83258 10627 ft 259 kts 317°
2026-04-22 17:38 33.69922 -111.84229 10496 ft 266 kts 336°
2026-04-22 17:38 33.71784 -111.84565 10381 ft 279 kts
2026-04-22 17:38 33.73597 -111.83726 10232 ft 285 kts 31°
2026-04-22 17:38 33.75269 -111.82408 10128 ft 288 kts 32°
2026-04-22 17:39 33.76963 -111.81045 10036 ft 292 kts 33°
2026-04-22 17:39 33.78631 -111.79709 9688 ft 294 kts 33°
2026-04-22 17:39 33.81985 -111.76869 9078 ft 290 kts 50°
2026-04-22 17:40 33.82832 -111.74761 8975 ft 274 kts 84°
2026-04-22 17:40 33.82638 -111.72598 8944 ft 255 kts 112°
2026-04-22 17:40 33.81726 -111.70826 8656 ft 249 kts 137°
2026-04-22 17:40 33.80357 -111.69577 8298 ft 248 kts 150°
2026-04-22 17:41 33.78865 -111.68527 7983 ft 248 kts 152°
2026-04-22 17:41 33.77381 -111.67504 7725 ft 245 kts 152°
2026-04-22 17:41 33.75817 -111.66678 7373 ft 245 kts 163°
2026-04-22 17:41 33.74199 -111.66083 7126 ft 243 kts 165°
2026-04-22 17:42 33.72573 -111.65508 6824 ft 243 kts 165°
2026-04-22 17:42 33.70951 -111.65074 6552 ft 240 kts 175°
2026-04-22 17:42 33.69282 -111.64978 6275 ft 238 kts 179°
2026-04-22 17:42 33.67639 -111.65194 5877 ft 241 kts 201°
2026-04-22 17:43 33.66259 -111.66160 5891 ft 225 kts 216°
2026-04-22 17:43 33.64891 -111.67160 5404 ft 234 kts 208°
2026-04-22 17:43 33.63453 -111.68112 5104 ft 237 kts 209°
2026-04-22 17:43 33.62018 -111.69078 4846 ft 235 kts 209°
2026-04-22 17:44 33.60595 -111.70040 4557 ft 234 kts 209°
2026-04-22 17:44 33.59179 -111.71002 4265 ft 234 kts 209°
2026-04-22 17:44 33.57782 -111.71953 4152 ft 231 kts 209°
2026-04-22 17:44 33.56372 -111.72912 4076 ft 233 kts 209°
2026-04-22 17:45 33.54963 -111.73870 4017 ft 233 kts 209°
2026-04-22 17:45 33.53547 -111.74831 4018 ft 234 kts 210°
2026-04-22 17:45 33.52134 -111.75793 4002 ft 233 kts 210°
2026-04-22 17:45 33.50737 -111.76743 4016 ft 229 kts 210°
2026-04-22 17:46 33.49365 -111.77678 3973 ft 224 kts 209°
2026-04-22 17:46 33.48002 -111.78603 4016 ft 222 kts 209°
2026-04-22 17:46 33.46671 -111.79507 3986 ft 222 kts 210°
2026-04-22 17:46 33.45365 -111.80397 4077 ft 202 kts 211°
2026-04-22 17:47 33.44418 -111.81549 3940 ft 193 kts 242°
2026-04-22 17:47 33.44068 -111.83056 3699 ft 190 kts 265°
2026-04-22 17:47 33.44050 -111.84606 3539 ft 182 kts 269°
2026-04-22 17:47 33.44061 -111.86149 3322 ft 183 kts 269°
2026-04-22 17:48 33.44065 -111.87135 3158 ft 180 kts 269°
2026-04-22 17:48 33.44069 -111.89149 2819 ft 178 kts 269°
2026-04-22 17:48 33.44070 -111.90606 2564 ft 172 kts 269°
2026-04-22 17:48 33.44073 -111.91987 2373 ft 160 kts 270°
2026-04-22 17:49 33.44074 -111.93294 2121 ft 155 kts 270°
2026-04-22 17:49 33.44076 -111.94578 1925 ft 154 kts 270°
2026-04-22 17:49 33.44077 -111.95860 1726 ft 153 kts 270°
2026-04-22 17:49 33.44078 -111.97129 1521 ft 153 kts 270°
2026-04-22 17:50 33.44081 -111.98401 1323 ft 153 kts 270°
2026-04-22 17:50 33.44078 -111.99671 1144 ft 152 kts 270°
2026-04-22 17:50 33.44080 -112.00776 1118 ft 98 kts 270°
2026-04-22 17:50 33.44080 -112.01267 1129 ft 21 kts 268°
2026-04-22 17:51 33.44003 -112.01346 1119 ft 16 kts 145°
2026-04-22 17:51 33.43981 -112.01211 1128 ft 18 kts 93°
2026-04-22 17:51 33.43974 -112.01051 1127 ft 21 kts 90°
2026-04-22 17:51 33.43976 -112.00870 1117 ft 23 kts 89°
2026-04-22 17:52 33.43975 -112.00671 1124 ft 25 kts 91°
2026-04-22 17:52 33.43975 -112.00455 1126 ft 27 kts 93°
2026-04-22 17:52 33.43831 -112.00377 1121 ft 26 kts 181°
2026-04-22 17:52 33.43637 -112.00379 1120 ft 27 kts 180°
2026-04-22 17:53 33.43489 -112.00378 1122 ft 19 kts 180°
2026-04-22 17:53 33.43360 -112.00379 1121 ft 15 kts 180°
2026-04-22 17:53 33.43285 -112.00310 1120 ft 16 kts 99°
2026-04-22 17:53 33.43285 -112.00167 1120 ft 19 kts 89°
2026-04-22 17:54 33.43326 -112.00074 1121 ft 13 kts 16°
2026-04-22 17:54 33.43356 -112.00071 1118 ft 3 kts 359°
2026-04-22 17:54 33.43382 -112.00062 1121 ft 4 kts 54°
2026-04-22 17:54 33.43390 -112.00022 1117 ft 6 kts 85°
2026-04-22 17:55 33.43391 -112.00002 1126 ft 0 kts 86°
2026-04-22 17:55 33.43391 -111.99998 1126 ft 0 kts 86°